Location: *
(29.1167°S, 130.0000°E)
Time: 02:56:35
(UTC+00:00)

Timation 2 Rocket - Pass Details

Date: 21 July 2019
Orbit: 906 x 1076 km, 70.0° (Epoch: 19 August)

Event Time Altitude Azimuth Distance (km) Brightness Sun altitude
Rises 09:02:44 0° 357° (N) 3,555 7.3 -4.9°
Reaches altitude 10° 09:05:20 10° 3° (N) 2,604 6.5 -5.5°
Maximum altitude 09:11:00 45° 74° (ENE) 1,221 4.2 -6.6°
Drops below altitude 10° 09:16:41 10° 145° (SE) 2,610 5.8 -7.8°
Enters shadow 09:19:17 - 151° (SSE) 3,560 6.5 -8.3°
